Change the Weather History Date:

Saturday, February 16, 2013

  Actual Average Record
Temperature  
Mean Temperature 24 °F -  
Max Temperature 27 °F 37 °F 63 °F (2006)
Min Temperature 21 °F 25 °F -2 °F (2015)
Degree Days  
Heating Degree Days 41    
Moisture  
Dew Point 17 °F    
Average Humidity 77    
Maximum Humidity 93    
Minimum Humidity 58    
Precipitation  
Precipitation 0.00 in - - ()
Sea Level Pressure  
Sea Level Pressure 30.01 in    
Wind  
Wind Speed 9 mph (NW)    
Max Wind Speed 23 mph    
Max Gust Speed 29 mph    
Visibility 7 miles    
Events Fog , Snow    
Averages and records for this station are not official NWS values.
T = Trace of Precipitation, MM = Missing Value Source: NWS Daily Summary

Daily Weather History Graph

Daily Weather History Graph

Search for Another Location

Airport or City:

Trip Planner

Search our weather history database for the weather conditions in past years. The results will help you decide how hot, cold, wet, or windy it might be!

Date:

Astronomy

Feb. 16, 2013 Rise Set
Actual Time 7:20 AM EST 6:01 PM EST
Civil Twilight 6:51 AM EST 6:30 PM EST
Nautical Twilight 6:19 AM EST 7:02 PM EST
Astronomical Twilight 5:47 AM EST 7:34 PM EST
Moon 10:26 AM EST (2/16) 12:05 AM EST (2/16)
Length of Visible Light 11h 38m
Length of Day
10h 41m
Waxing Crescent, 39% of the Moon is Illuminated
Feb 16
Waxing Crescent
Feb 17
First Quarter
Feb 25
Full
Mar 4
Last Quarter
Mar 11
New

Hourly Weather History & Observations

Time (EST) Temp. Windchill Dew Point Humidity Pressure Visibility Wind Dir Wind Speed Gust Speed Precip Events Conditions
12:53 AM 27.0 °F 17.3 °F 16.0 °F 63% 30.10 in 10.0 mi NNW 10.4 mph - N/A   Overcast
1:53 AM 26.1 °F 18.4 °F 15.1 °F 63% 30.10 in 10.0 mi NNW 6.9 mph - N/A   Overcast
2:53 AM 26.1 °F 20.5 °F 16.0 °F 66% 30.09 in 10.0 mi NNW 4.6 mph - 0.00 in   Overcast
3:53 AM 25.0 °F - 18.0 °F 75% 30.07 in 8.0 mi Calm Calm - 0.00 in Snow Light Snow
4:53 AM 25.0 °F 14.8 °F 18.0 °F 75% 30.06 in 9.0 mi West 10.4 mph - 0.00 in   Overcast
5:19 AM 24.8 °F 14.0 °F 17.6 °F 74% 30.03 in 6.0 mi West 11.5 mph - 0.00 in Snow Light Snow
5:53 AM 25.0 °F 13.1 °F 14.0 °F 63% 30.06 in 10.0 mi West 13.8 mph 20.7 mph 0.00 in   Mostly Cloudy
6:53 AM 24.1 °F 12.0 °F 14.0 °F 65% 30.06 in 10.0 mi WNW 13.8 mph - N/A   Clear
7:53 AM 24.1 °F 13.7 °F 14.0 °F 65% 30.06 in 10.0 mi WNW 10.4 mph - N/A   Clear
8:53 AM 26.1 °F 18.4 °F 14.0 °F 60% 30.06 in 10.0 mi WNW 6.9 mph - N/A   Clear
9:53 AM 26.1 °F 21.9 °F 12.9 °F 58% 30.06 in 10.0 mi NW 3.5 mph - N/A   Clear
10:53 AM 26.1 °F 20.5 °F 16.0 °F 66% 30.06 in 10.0 mi North 4.6 mph - N/A   Mostly Cloudy
11:53 AM 25.0 °F 20.7 °F 14.0 °F 63% 30.05 in 10.0 mi NW 3.5 mph - N/A   Overcast
12:53 PM 26.1 °F 21.9 °F 15.1 °F 63% 30.03 in 10.0 mi NNW 3.5 mph - N/A   Mostly Cloudy
1:53 PM 25.0 °F - 14.0 °F 63% 30.01 in 10.0 mi Calm Calm - N/A   Overcast
2:22 PM 26.6 °F 20.0 °F 15.8 °F 64% 29.98 in 2.0 mi WNW 5.8 mph - 0.00 in Snow Light Snow
2:35 PM 26.6 °F 21.2 °F 17.6 °F 69% 29.98 in 5.0 mi NW 4.6 mph - 0.00 in Snow Light Snow
2:53 PM 27.0 °F 20.5 °F 17.1 °F 66% 29.99 in 10.0 mi NNE 5.8 mph - 0.00 in   Mostly Cloudy
3:53 PM 26.1 °F 21.9 °F 15.1 °F 63% 29.99 in 10.0 mi North 3.5 mph - N/A   Mostly Cloudy
4:53 PM 25.0 °F 17.1 °F 16.0 °F 69% 30.00 in 10.0 mi WNW 6.9 mph - N/A   Overcast
5:07 PM 24.8 °F 16.9 °F 17.6 °F 74% 29.98 in 2.0 mi West 6.9 mph - 0.00 in Snow Light Snow
5:13 PM 24.8 °F 16.9 °F 19.4 °F 80% 29.98 in 0.8 mi WNW 6.9 mph - 0.00 in Snow Light Snow
5:29 PM 23.0 °F 18.4 °F 21.2 °F 93% 29.98 in 0.2 mi SSE 3.5 mph - 0.00 in Fog , Snow Heavy Snow
5:41 PM 23.0 °F 18.4 °F 21.2 °F 93% 29.98 in 0.8 mi WNW 3.5 mph - 0.00 in Snow Light Snow
5:46 PM 23.0 °F 18.4 °F 19.4 °F 86% 29.98 in 2.5 mi WNW 3.5 mph - 0.00 in Snow Light Snow
5:53 PM 21.9 °F 17.2 °F 19.9 °F 92% 30.01 in 9.0 mi WNW 3.5 mph - 0.00 in   Overcast
6:10 PM 23.0 °F 10.1 °F 19.4 °F 86% 29.99 in 1.5 mi WNW 15.0 mph - 0.00 in Snow Light Snow
6:22 PM 21.2 °F 11.7 °F 19.4 °F 93% 29.99 in 1.0 mi WNW 8.1 mph - 0.00 in Snow Light Snow
6:32 PM 21.2 °F 14.9 °F 19.4 °F 93% 29.99 in 2.0 mi WNW 4.6 mph - 0.00 in Snow Light Snow
6:41 PM 21.2 °F 16.4 °F 17.6 °F 86% 29.99 in 8.0 mi WNW 3.5 mph - 0.00 in Snow Light Snow
6:53 PM 21.9 °F 15.7 °F 18.0 °F 85% 30.02 in 10.0 mi NW 4.6 mph - 0.00 in   Overcast
7:53 PM 23.0 °F 15.8 °F 18.0 °F 81% 30.01 in 4.0 mi WNW 5.8 mph - 0.00 in Snow Light Snow
8:16 PM 23.0 °F 11.7 °F 19.4 °F 86% 29.99 in 1.8 mi NW 11.5 mph - 0.00 in Snow Light Snow
8:21 PM 23.0 °F 12.4 °F 19.4 °F 86% 29.99 in 3.0 mi NW 10.4 mph - 0.00 in Snow Light Snow
8:34 PM 23.0 °F 13.1 °F 17.6 °F 80% 29.99 in 9.0 mi NW 9.2 mph - 0.00 in Snow Light Snow
8:53 PM 21.9 °F 11.7 °F 18.0 °F 85% 30.01 in 9.0 mi NW 9.2 mph - 0.00 in   Overcast
9:39 PM 21.2 °F 8.9 °F 17.6 °F 86% 29.99 in 9.0 mi NW 12.7 mph - 0.00 in Snow Light Snow
9:53 PM 21.9 °F 9.2 °F 18.0 °F 85% 30.01 in 9.0 mi NNW 13.8 mph - 0.00 in   Overcast
10:18 PM 21.2 °F 5.6 °F 19.4 °F 93% 29.98 in 2.0 mi NW 20.7 mph 24.2 mph 0.00 in Snow Light Snow
10:21 PM 21.2 °F 4.9 °F 19.4 °F 93% 29.98 in 1.8 mi NW 23.0 mph 27.6 mph 0.00 in Snow Light Snow
10:26 PM 21.2 °F 5.2 °F 17.6 °F 86% 29.98 in 3.0 mi NW 21.9 mph 28.8 mph 0.00 in Snow Light Snow
10:46 PM 21.2 °F 5.6 °F 17.6 °F 86% 29.98 in 10.0 mi NW 20.7 mph 27.6 mph 0.00 in   Overcast
10:53 PM 21.9 °F 6.5 °F 17.1 °F 82% 30.01 in 10.0 mi NW 20.7 mph - 0.00 in   Overcast
11:06 PM 21.2 °F 6.0 °F 15.8 °F 80% 29.98 in 10.0 mi NW 19.6 mph - N/A   Overcast
11:32 PM 21.2 °F 6.0 °F 15.8 °F 80% 29.98 in 10.0 mi NW 19.6 mph - N/A   Overcast
11:53 PM 21.9 °F 7.3 °F 17.1 °F 82% 30.00 in 10.0 mi NW 18.4 mph - N/A   Mostly Cloudy